This is the latest recevied weather packets stored in our database for station/object KU9TRY. If no packets are shown the sender has not sent any weather packets the latest 10 day(s).
| Time | Temp. | Humidity | Pressure | Rain* | Wind** | Luminosity | Snow |
|---|---|---|---|---|---|---|---|
| 1778269399 | 22.22° C | 28% | 1013.4 hPa | 0 mm | - | 47 W/m² | - |
| 1778269096 | 21.67° C | 40% | 1013.3 hPa | 0 mm | - | 47 W/m² | - |
| 1778268793 | 21.67° C | 28% | 1013.6 hPa | 0 mm | - | 48 W/m² | - |
| 1778268489 | 21.67° C | 28% | 1013.6 hPa | 0 mm | - | 49 W/m² | - |
| 1778268186 | 21.11° C | 29% | 1013.8 hPa | 0 mm | - | 48 W/m² | - |
| 1778267883 | 21.11° C | 28% | 1013.7 hPa | 0 mm | - | 46 W/m² | - |
| 1778267580 | 21.67° C | 30% | 1014 hPa | 0 mm | - | 47 W/m² | - |
| 1778267278 | 21.11° C | 32% | 1014 hPa | 0 mm | - | 48 W/m² | - |
| 1778266973 | 21.67° C | 28% | 1014.3 hPa | 0 mm | - | 49 W/m² | - |
| 1778266670 | 21.67° C | 29% | 1014.4 hPa | 0 mm | - | 47 W/m² | - |
| 1778266368 | 21.67° C | 27% | 1014.4 hPa | 0 mm | - | 47 W/m² | - |
| 1778266065 | 21.67° C | 28% | 1014.7 hPa | 0 mm | - | 48 W/m² | - |
| 1778265762 | 21.67° C | 32% | 1014.6 hPa | 0 mm | - | 48 W/m² | - |
| 1778265459 | 21.11° C | 29% | 1014.9 hPa | 0 mm | - | 54 W/m² | - |
| 1778265155 | 21.67° C | 26% | 1014.9 hPa | 0 mm | - | 199 W/m² | - |
| 1778264851 | 21.11° C | 32% | 1014.8 hPa | 0 mm | - | 51 W/m² | - |
| 1778264548 | 21.11° C | 31% | 1015.3 hPa | 0 mm | - | 53 W/m² | - |
| 1778264244 | 21.11° C | 34% | 1015 hPa | 0 mm | - | 51 W/m² | - |
| 1778263941 | 21.11° C | 27% | 1015.4 hPa | 0 mm | - | 53 W/m² | - |
| 1778263637 | 20.56° C | 29% | 1015.3 hPa | 0 mm | - | 53 W/m² | - |
| 1778263334 | 20.56° C | 33% | 1015.6 hPa | 0 mm | - | 54 W/m² | - |
| 1778263031 | 20.56° C | 29% | 1015.6 hPa | 0 mm | - | 54 W/m² | - |
| 1778262728 | 20.56° C | 30% | 1015.8 hPa | 0 mm | - | 56 W/m² | - |
| 1778262426 | 21.11° C | 28% | 1015.7 hPa | 0 mm | - | 56 W/m² | - |
| 1778262122 | 20.56° C | 30% | 1015.7 hPa | 0 mm | - | 93 W/m² | - |
* Rain latest hour (hover to see other rain measurements)
** Current wind speed in m/s (hover to see current wind gust speed)